FW2530 Weather Reports


Display with metric or nautical units.
time (UTC)temp
F
wind
direction
speed
MPH
gust
MPH
rain 1hr
in
rain 24hr
in
rain mn
in
humidity
%
barometer
mb
20260901014512 72 360 1.0 3.0 0.00 0.29 0.28 78 1014.8
20260901014012 72 360 1.0 5.0 0.00 0.29 0.28 78 1015.0
20260901013533 72 360 1.0 3.0 0.00 0.29 0.28 78 1015.0
20260901013012 72 3 1.0 5.0 0.00 0.29 0.28 78 1014.9
20260901012513 72 10 1.0 5.0 0.00 0.29 0.28 78 1014.9
20260901012013 72 10 1.0 5.0 0.00 0.30 0.28 78 1015.0
20260901011512 72 2 1.0 4.0 0.00 0.31 0.28 78 1014.9
20260901011033 72 360 1.0 3.0 0.00 0.31 0.28 78 1015.0
20260901010512 72 360 2.0 4.0 0.00 0.32 0.28 78 1014.9
20260901010034 72 360 2.0 4.0 0.00 0.35 0.28 78 1014.8
20260901005534 72 360 2.0 5.0 0.00 0.36 0.28 78 1014.9
20260901005033 72 360 2.0 4.0 0.00 0.37 0.28 78 1014.9
20260901004513 72 360 3.0 5.0 0.00 0.43 0.28 78 1014.8
20260901004012 72 360 3.0 5.0 0.00 0.46 0.28 78 1015.0
20260901003512 72 360 2.0 5.0 0.00 0.48 0.28 78 1015.0
20260901003012 72 360 2.0 5.0 0.00 0.49 0.28 78 1015.0
20260901002533 72 360 3.0 5.0 0.00 0.50 0.28 78 1015.1
20260901002012 72 360 2.0 7.0 0.00 0.51 0.28 77 1015.2
20260901001533 73 360 1.0 5.0 0.00 0.51 0.28 77 1015.3
20260901001012 73 360 2.0 4.0 0.00 0.51 0.28 77 1015.3
20260901000512 73 360 3.0 8.0 0.00 0.51 0.28 77 1015.3
20260901000033 73 360 2.0 7.0 0.00 0.51 0.28 77 1015.4
20260831235513 73 360 2.0 7.0 0.00 0.51 0.28 77 1015.4
20260831235012 74 360 2.0 7.0 0.00 0.51 0.28 77 1015.4
20260831234513 74 360 2.0 7.0 0.00 0.51 0.28 77 1015.6
20260831234012 74 360 2.0 5.0 0.00 0.52 0.28 77 1015.6
20260831233512 74 360 2.0 7.0 0.00 0.53 0.28 77 1015.5
20260831233012 74 360 2.0 7.0 0.00 0.53 0.28 77 1015.5
20260831232512 74 360 1.0 4.0 0.00 0.53 0.28 77 1015.7
20260831232012 74 360 2.0 5.0 0.00 0.53 0.28 77 1015.7
20260831231533 74 360 3.0 8.0 0.00 0.54 0.28 77 1015.4
20260831231012 74 360 3.0 7.0 0.00 0.54 0.28 77 1015.5
20260831230512 74 360 4.0 8.0 0.00 0.54 0.28 75 1015.5
20260831230012 74 360 4.0 8.0 0.00 0.54 0.28 75 1015.2
20260831225512 75 360 3.0 8.0 0.00 0.54 0.28 75 1015.4
20260831225033 75 360 2.0 5.0 0.00 0.54 0.28 75 1015.5
20260831224512 75 360 2.0 7.0 0.00 0.54 0.28 74 1015.6
20260831224012 75 360 2.0 4.0 0.00 0.55 0.28 74 1015.7
20260831223512 75 360 2.0 5.0 0.00 0.55 0.28 74 1015.9
20260831223012 75 360 3.0 7.0 0.00 0.57 0.28 74 1015.5
20260831222512 76 360 2.0 4.0 0.00 0.57 0.28 74 1015.7
20260831222012 75 360 2.0 4.0 0.00 0.57 0.28 74 1015.7
20260831221512 75 360 1.0 5.0 0.00 0.57 0.28 74 1015.8
20260831221012 75 360 1.0 4.0 0.00 0.58 0.28 74 1015.7
20260831220533 75 360 1.0 3.0 0.00 0.58 0.28 74 1015.6
20260831220012 75 360 1.0 4.0 0.00 0.58 0.28 75 1015.4
20260831215533 75 360 2.0 4.0 0.00 0.58 0.28 75 1015.3
20260831215012 75 360 3.0 5.0 0.00 0.58 0.28 75 1015.2
20260831214512 75 360 2.0 5.0 0.00 0.58 0.28 75 1015.3
20260831214012 75 360 3.0 4.0 0.00 0.58 0.28 75 1015.3
20260831213512 75 360 4.0 7.0 0.00 0.59 0.28 75 1015.2
20260831213012 75 9 5.0 11.0 0.00 0.61 0.28 75 1015.2
20260831212512 75 12 5.0 8.0 0.00 0.62 0.28 75 1015.2
20260831212012 76 3 4.0 12.0 0.00 0.63 0.28 77 1015.3
20260831211533 75 360 4.0 7.0 0.00 0.63 0.28 77 1015.3
20260831211013 75 360 6.0 11.0 0.00 0.64 0.28 77 1015.2
20260831210512 75 360 5.0 11.0 0.00 0.65 0.28 77 1015.2
20260831210012 75 360 4.0 7.0 0.00 0.65 0.28 78 1015.1
20260831205512 74 360 4.0 7.0 0.00 0.65 0.28 77 1015.2
20260831205012 74 360 4.0 8.0 0.00 0.65 0.28 77 1015.2
20260831204512 74 360 4.0 7.0 0.00 0.65 0.28 77 1015.5
20260831204012 74 360 2.0 5.0 0.01 0.65 0.28 77 1015.4
20260831203512 74 360 1.0 4.0 0.01 0.65 0.28 75 1015.6
20260831203012 74 360 0.0 1.0 0.01 0.65 0.28 75 1015.9
20260831202512 74 360 0.0 4.0 0.01 0.66 0.28 75 1016.0
20260831202012 74 360 1.0 3.0 0.01 0.66 0.28 75 1016.0
20260831201512 74 360 1.0 4.0 0.01 0.69 0.28 75 1016.0
20260831201012 75 360 1.0 4.0 0.01 0.70 0.28 74 1016.0
20260831200512 75 360 1.0 4.0 0.01 0.72 0.28 74 1016.0
20260831200012 75 360 1.0 4.0 0.01 0.72 0.28 74 1016.1
20260831195512 75 360 1.0 4.0 0.01 0.72 0.28 74 1016.2
20260831195012 75 0 0.0 0.0 0.01 0.72 0.28 74 1016.2
20260831194512 75 360 0.0 0.0 0.01 0.75 0.28 74 1016.3
20260831194012 75 360 0.0 1.0 0.00 0.76 0.27 73 1016.3
20260831193512 75 360 0.0 1.0 0.00 0.79 0.27 73 1015.9
20260831193012 75 360 0.0 1.0 0.00 0.81 0.27 73 1016.1
20260831192512 75 360 0.0 1.0 0.00 0.83 0.27 73 1016.3
20260831192012 75 360 0.0 3.0 0.00 0.84 0.27 73 1016.5
20260831191512 75 360 0.0 3.0 0.00 0.86 0.27 73 1016.6
20260831191012 76 360 0.0 1.0 0.00 0.87 0.27 74 1016.5
20260831190512 75 0 0.0 0.0 0.00 0.87 0.27 74 1016.5
20260831190012 75 360 0.0 0.0 0.00 0.88 0.27 74 1016.7
20260831185512 75 360 1.0 4.0 0.00 0.88 0.27 74 1016.9
20260831185013 75 360 1.0 4.0 0.00 0.88 0.27 74 1017.0
20260831184533 75 360 1.0 5.0 0.00 0.89 0.27 75 1017.4
20260831184012 75 360 1.0 4.0 0.00 0.89 0.27 75 1017.5
20260831183513 75 360 1.0 4.0 0.00 0.89 0.27 75 1017.4
20260831183033 75 360 1.0 4.0 0.00 0.89 0.27 77 1017.1
20260831182512 75 360 1.0 4.0 0.00 0.89 0.27 77 1017.0
20260831182012 74 360 1.0 4.0 0.00 0.89 0.27 77 1017.1
20260831181533 74 360 0.0 3.0 0.00 0.89 0.27 77 1017.0
20260831181033 74 0 0.0 0.0 0.00 0.89 0.27 77 1017.0
20260831180533 74 0 0.0 0.0 0.00 0.89 0.27 77 1016.8
20260831180012 74 0 0.0 0.0 0.00 0.89 0.27 77 1016.7
20260831175512 74 0 0.0 0.0 0.00 0.89 0.27 77 1016.8
20260831175012 74 0 0.0 0.0 0.00 0.89 0.27 77 1016.8
20260831174512 74 0 0.0 0.0 0.00 0.89 0.27 77 1017.1
20260831174012 74 0 0.0 0.0 0.00 0.89 0.27 77 1017.2
20260831173512 74 0 0.0 0.0 0.01 0.89 0.27 77 1017.2
20260831173012 74 0 0.0 0.0 0.02 0.89 0.27 77 1017.1
20260831172512 74 0 0.0 0.0 0.02 0.89 0.27 77 1017.1
20260831172012 74 0 0.0 0.0 0.02 0.90 0.27 77 1017.2
20260831171512 74 0 0.0 0.0 0.02 0.90 0.27 77 1017.3
20260831171012 74 360 0.0 0.0 0.02 0.91 0.27 77 1017.3
20260831170512 74 360 0.0 3.0 0.02 0.91 0.27 77 1017.5
20260831170012 74 360 0.0 4.0 0.02 0.93 0.27 77 1017.7
20260831165512 74 360 1.0 4.0 0.05 0.94 0.27 77 1018.0
20260831165012 74 360 1.0 5.0 0.06 0.94 0.27 77 1018.1
20260831164533 74 360 1.0 4.0 0.06 0.95 0.27 77 1018.2
20260831164012 74 360 1.0 4.0 0.06 0.96 0.27 77 1018.2
20260831163512 74 360 1.0 3.0 0.07 0.97 0.26 77 1018.3
20260831163012 74 360 1.0 4.0 0.06 0.98 0.25 77 1018.3
20260831162512 74 360 1.0 4.0 0.06 0.99 0.25 77 1018.3
20260831162012 74 360 1.0 4.0 0.06 1.02 0.25 77 1018.2
20260831161512 74 360 1.0 5.0 0.06 1.03 0.25 77 1018.1
20260831161012 74 360 1.0 4.0 0.06 1.05 0.25 77 1018.0
20260831160512 75 360 1.0 3.0 0.06 1.06 0.25 77 1018.0
20260831160012 75 360 1.0 4.0 0.06 1.06 0.24 77 1017.9
20260831155512 75 360 1.0 4.0 0.03 1.04 0.22 77 1017.8
20260831155012 75 360 0.0 3.0 0.02 1.03 0.21 78 1017.6
20260831154512 75 360 0.0 3.0 0.02 1.03 0.21 78 1017.6
20260831154012 75 360 1.0 3.0 0.02 1.02 0.20 78 1017.6
20260831153512 75 360 1.0 5.0 0.00 1.01 0.20 78 1017.6
20260831153033 75 360 1.0 4.0 0.00 1.01 0.19 79 1017.5
20260831152533 75 360 0.0 5.0 0.00 1.01 0.19 79 1017.2
20260831152012 75 305 1.0 3.0 0.00 1.01 0.19 79 1017.1
20260831151533 75 298 1.0 8.0 0.00 1.01 0.19 79 1017.2
20260831151012 75 278 0.0 5.0 0.00 1.02 0.19 80 1017.0
20260831150512 75 279 0.0 3.0 0.00 1.02 0.19 80 1017.0
20260831150012 75 279 0.0 3.0 0.00 1.02 0.19 80 1016.9
20260831145512 75 286 0.0 1.0 0.00 1.02 0.19 80 1016.8
20260831145012 75 283 1.0 1.0 0.00 1.02 0.19 80 1016.9
20260831144512 75 233 2.0 5.0 0.00 1.02 0.19 80 1017.0
20260831144012 75 219 2.0 5.0 0.00 1.02 0.19 80 1017.0
20260831143512 75 242 1.0 5.0 0.00 1.02 0.19 81 1016.9
20260831143012 74 345 1.0 4.0 0.00 1.02 0.19 81 1017.0
20260831142512 74 358 2.0 7.0 0.00 1.02 0.19 81 1016.9
20260831142012 73 357 2.0 7.0 0.00 1.03 0.19 81 1016.8
20260831141512 73 245 1.0 5.0 0.00 1.03 0.19 81 1016.8
20260831141012 73 205 2.0 5.0 0.00 1.03 0.19 81 1016.8
20260831140512 73 188 3.0 5.0 0.00 1.04 0.19 81 1016.9
20260831140012 73 10 3.0 8.0 0.00 1.04 0.19 81 1017.0
20260831135511 73 360 2.0 4.0 0.00 1.04 0.19 81 1016.8
20260831135011 73 360 3.0 7.0 0.00 1.04 0.19 81 1016.7
20260831134512 72 360 3.0 5.0 0.01 1.05 0.19 81 1016.6
20260831134012 72 360 2.0 5.0 0.01 1.06 0.19 81 1016.6
20260831133512 72 360 1.0 4.0 0.01 1.06 0.19 81 1016.7
20260831133012 71 0 0.0 0.0 0.02 1.06 0.19 81 1016.9
20260831132533 71 0 0.0 0.0 0.02 1.07 0.19 81 1016.8
20260831132012 70 0 0.0 0.0 0.02 1.09 0.19 81 1016.7
20260831131512 70 0 0.0 0.0 0.02 1.10 0.19 81 1016.8
20260831131012 70 0 0.0 0.0 0.05 1.11 0.19 81 1016.7
20260831130512 70 169 0.0 0.0 0.07 1.12 0.19 81 1016.7
20260831130011 70 169 1.0 1.0 0.07 1.13 0.19 81 1016.6
20260831125512 70 168 1.0 5.0 0.07 1.14 0.19 81 1016.5
20260831125012 70 168 1.0 5.0 0.07 1.14 0.19 81 1016.2
20260831124512 70 168 2.0 5.0 0.06 1.14 0.18 81 1016.0
20260831124012 70 163 3.0 7.0 0.06 1.15 0.18 81 1015.9
20260831123512 70 158 4.0 9.0 0.06 1.15 0.18 81 1015.9
20260831123012 70 158 3.0 9.0 0.06 1.14 0.17 81 1015.9
20260831122511 70 153 2.0 4.0 0.06 1.14 0.17 81 1016.3
20260831122012 69 135 1.0 4.0 0.06 1.14 0.17 81 1016.6
20260831121512 69 0 0.0 0.0 0.05 1.13 0.17 81 1016.8
20260831121012 69 0 0.0 0.0 0.02 1.11 0.14 81 1017.0
20260831120512 69 0 0.0 0.0 0.00 1.09 0.12 81 1017.1
20260831120012 69 0 0.0 0.0 0.00 1.09 0.12 81 1017.0
20260831115512 69 0 0.0 0.0 0.00 1.09 0.12 81 1017.1
20260831115011 69 0 0.0 0.0 0.00 1.09 0.12 81 1017.2
20260831114512 69 153 0.0 0.0 0.00 1.09 0.12 81 1017.2
20260831114033 69 151 1.0 3.0 0.00 1.09 0.12 81 1017.1
20260831113511 69 149 0.0 4.0 0.00 1.09 0.12 81 1016.8
20260831113011 69 146 0.0 1.0 0.00 1.09 0.12 81 1017.0
20260831112512 69 156 0.0 1.0 0.00 1.09 0.12 81 1017.1
20260831112012 69 0 0.0 0.0 0.00 1.09 0.12 81 1017.2
20260831111512 69 0 0.0 0.0 0.00 1.09 0.12 81 1017.2
20260831111012 69 145 0.0 1.0 0.00 1.09 0.12 81 1017.2
20260831110511 69 154 0.0 1.0 0.00 1.09 0.12 81 1017.0
20260831110012 69 156 0.0 3.0 0.00 1.09 0.12 81 1017.0
20260831105512 69 156 0.0 1.0 0.00 1.09 0.12 81 1017.0
20260831105011 69 156 0.0 3.0 0.00 1.09 0.12 81 1016.9
20260831104533 69 156 0.0 3.0 0.00 1.09 0.12 81 1017.0
20260831104011 69 157 0.0 3.0 0.00 1.09 0.12 81 1017.0
20260831103533 69 157 0.0 4.0 0.00 1.09 0.12 81 1016.9
20260831103012 69 157 0.0 3.0 0.00 1.09 0.12 81 1016.9
20260831102533 69 157 1.0 4.0 0.00 1.09 0.12 81 1016.9
20260831102011 69 157 1.0 3.0 0.00 1.09 0.12 81 1016.8
20260831101511 68 157 0.0 3.0 0.00 1.09 0.12 81 1016.7
20260831101033 68 156 0.0 0.0 0.00 1.09 0.12 81 1016.8
20260831100511 68 156 0.0 3.0 0.00 1.09 0.12 81 1016.8
20260831100012 68 156 0.0 4.0 0.00 1.09 0.12 81 1016.7
20260831095511 68 156 0.0 3.0 0.00 1.09 0.12 81 1016.6
20260831095032 68 157 0.0 3.0 0.00 1.09 0.12 81 1016.6
20260831094511 68 156 1.0 3.0 0.00 1.09 0.12 81 1016.7
20260831094032 68 156 1.0 4.0 0.00 1.09 0.12 81 1016.6
20260831093512 68 156 0.0 3.0 0.00 1.09 0.12 81 1016.6
20260831093032 68 157 0.0 0.0 0.00 1.09 0.12 81 1016.7
20260831092511 68 157 0.0 3.0 0.00 1.09 0.12 81 1016.7
20260831092011 68 157 1.0 1.0 0.00 1.09 0.12 81 1016.6
20260831091532 68 157 1.0 4.0 0.00 1.09 0.12 81 1016.6
20260831091012 68 156 0.0 3.0 0.00 1.09 0.12 81 1016.6
20260831090511 68 157 1.0 0.0 0.00 1.09 0.12 80 1016.7
20260831090012 68 157 1.0 4.0 0.00 1.09 0.12 81 1016.8
20260831085512 68 155 0.0 1.0 0.00 1.09 0.12 80 1016.7
20260831085012 68 156 0.0 1.0 0.00 1.09 0.12 80 1016.7
20260831084511 68 157 1.0 1.0 0.00 1.09 0.12 80 1016.6
20260831084011 68 156 1.0 3.0 0.00 1.09 0.12 80 1016.6
20260831083511 68 156 2.0 5.0 0.00 1.09 0.12 80 1016.6
20260831083011 68 156 2.0 7.0 0.00 1.09 0.12 80 1016.6
20260831082511 68 157 1.0 4.0 0.00 1.09 0.12 80 1016.6
20260831082011 68 152 0.0 3.0 0.00 1.09 0.12 80 1016.7
20260831081511 68 153 1.0 1.0 0.00 1.09 0.12 80 1016.7
20260831081011 68 154 0.0 3.0 0.00 1.09 0.12 80 1016.7
20260831080532 68 0 0.0 0.0 0.00 1.09 0.12 80 1016.7
20260831080011 68 0 0.0 0.0 0.00 1.09 0.12 80 1016.7
20260831075511 68 0 0.0 0.0 0.00 1.09 0.12 80 1016.7
20260831075011 68 0 0.0 0.0 0.00 1.09 0.12 80 1016.8
20260831074511 68 156 0.0 0.0 0.01 1.09 0.12 80 1016.7
20260831074011 68 157 0.0 1.0 0.01 1.09 0.12 80 1016.7
20260831073511 68 156 0.0 1.0 0.01 1.09 0.12 80 1016.8
20260831073011 68 152 1.0 3.0 0.02 1.09 0.12 80 1017.0
20260831072511 68 152 1.0 3.0 0.02 1.09 0.12 80 1016.9
20260831072011 68 156 1.0 3.0 0.09 1.09 0.12 80 1016.9
20260831071511 68 156 0.0 4.0 0.12 1.09 0.12 80 1017.1
20260831071011 67 155 1.0 3.0 0.12 1.09 0.12 80 1017.1
20260831070511 67 155 1.0 4.0 0.12 1.09 0.12 80 1017.2
20260831070012 67 156 1.0 3.0 0.12 1.09 0.12 80 1017.2
20260831065511 67 156 2.0 7.0 0.12 1.09 0.12 80 1017.0
20260831065011 67 155 2.0 7.0 0.12 1.09 0.12 80 1017.0
20260831064511 67 155 2.0 4.0 0.11 1.09 0.11 80 1017.0
20260831064011 67 154 1.0 7.0 0.11 1.09 0.11 80 1017.1
20260831063511 67 154 1.0 3.0 0.11 1.09 0.11 80 1017.1
20260831063011 66 154 1.0 4.0 0.10 1.08 0.10 80 1017.1
20260831062512 66 152 0.0 4.0 0.09 1.07 0.09 80 1017.2
20260831062011 66 0 0.0 0.0 0.02 1.00 0.02 80 1017.5
20260831061532 66 0 0.0 0.0 0.00 0.98 0.00 80 1017.4
20260831061011 66 0 0.0 0.0 0.00 0.98 0.00 80 1017.4
20260831060511 66 0 0.0 0.0 0.00 0.98 0.00 80 1017.4
20260831060011 66 0 0.0 0.0 0.00 0.98 0.00 80 1017.4
20260831055511 66 0 0.0 0.0 0.00 0.98 0.00 80 1017.4
20260831055011 66 0 0.0 0.0 0.00 0.98 0.00 80 1017.5
20260831054532 66 0 0.0 0.0 0.00 0.98 0.00 80 1017.6
20260831054011 66 155 0.0 3.0 0.00 0.98 0.00 80 1017.6
20260831053532 66 155 0.0 3.0 0.00 0.98 0.00 80 1017.5
20260831053011 66 155 0.0 0.0 0.00 0.98 0.00 80 1017.7
20260831052532 66 155 0.0 1.0 0.00 0.98 0.00 80 1017.6
20260831052011 65 155 0.0 4.0 0.00 0.98 0.00 80 1017.6
20260831051533 65 155 0.0 0.0 0.00 0.98 0.00 80 1017.6
20260831051032 65 155 0.0 4.0 0.00 0.98 0.00 80 1017.6
20260831050511 65 0 0.0 0.0 0.00 0.98 0.00 80 1017.7
20260831050032 65 155 1.0 0.0 0.00 0.98 0.00 80 1017.7
20260831045511 65 155 1.0 4.0 0.00 0.98 0.00 80 1017.8
20260831045011 65 155 0.0 0.0 0.00 0.98 0.00 80 1017.8
20260831044533 65 155 1.0 3.0 0.00 0.98 0.00 80 1017.8
20260831044011 65 155 1.0 3.0 0.00 0.98 0.00 80 1017.8
20260831043511 65 155 1.0 7.0 0.00 0.98 0.00 80 1017.7
20260831043011 64 154 1.0 3.0 0.00 0.98 0.00 80 1017.7
20260831042511 64 152 1.0 3.0 0.00 0.98 0.00 80 1017.6
20260831042032 64 153 1.0 7.0 0.00 0.98 0.00 80 1017.6
20260831041512 64 155 1.0 4.0 0.00 0.98 0.00 80 1017.5
20260831040511 64 155 1.0 8.0 0.00 0.98 0.00 80 1017.6
20260831040011 64 155 0.0 4.0 0.00 0.98 0.00 80 1017.6
20260831035511 64 153 0.0 4.0 0.00 0.98 0.98 80 1017.5
20260831035011 64 152 0.0 1.0 0.00 0.98 0.98 80 1017.6
20260831034512 64 154 0.0 1.0 0.00 0.98 0.98 80 1017.5
20260831034011 64 155 0.0 4.0 0.00 0.98 0.98 80 1017.4
20260831033532 64 152 0.0 0.0 0.01 0.98 0.98 80 1017.4
20260831033012 64 152 1.0 7.0 0.01 0.98 0.98 80 1017.5
20260831032532 64 152 1.0 4.0 0.01 0.98 0.98 80 1017.4
20260831032011 64 153 1.0 4.0 0.01 0.98 0.98 80 1017.3
20260831031511 64 152 1.0 7.0 0.01 0.98 0.98 80 1017.3
20260831031032 64 152 1.0 4.0 0.01 0.98 0.98 80 1017.4
20260831030512 64 153 2.0 4.0 0.02 0.98 0.98 80 1017.4
20260831030011 64 152 2.0 8.0 0.02 0.98 0.98 80 1017.5
20260831025511 64 150 1.0 7.0 0.02 0.98 0.98 80 1017.5
20260831025011 64 157 2.0 9.0 0.02 0.98 0.98 80 1017.5
20260831024511 64 158 3.0 9.0 0.02 0.98 0.98 80 1017.4
20260831024011 64 156 3.0 8.0 0.02 0.98 0.98 80 1017.4
20260831023511 64 157 3.0 8.0 0.01 0.97 0.97 80 1017.5
20260831023032 64 156 3.0 8.0 0.01 0.97 0.97 80 1017.5
20260831022511 64 43 4.0 8.0 0.01 0.97 0.97 80 1017.5
20260831022012 64 2 4.0 11.0 0.02 0.97 0.97 80 1017.6
20260831021532 64 360 3.0 7.0 0.02 0.97 0.97 80 1017.6
20260831021032 64 360 3.0 11.0 0.02 0.97 0.97 80 1017.6
20260831020511 64 148 3.0 8.0 0.03 0.96 0.96 80 1017.8
20260831020011 64 157 2.0 9.0 0.06 0.96 0.96 80 1017.8
20260831015512 64 145 2.0 5.0 0.07 0.96 0.96 80 1017.9
20260831015011 64 124 3.0 7.0 0.08 0.96 0.96 80 1018.1